カタログに戻る

FENGYUN 1C DEB

運用中SSO
NORAD 31324·DEBRIS·🇨🇳 China

打ち上げ May 10, 1999 から Taiyuan Satellite Launch Center

Loading…

次のパス (今後24時間)

TLE

経年Source: Space-Track

元期: Sep 10, 2026, 01:00 UTC

1 31324U 99025BQC 26253.04212153  .00000117  00000-0  83895-4 0  9990
2 31324  99.1314 185.6158 0048657 258.4250 101.1458 14.14842076  2034

AllMySatでFENGYUN 1C DEBをリアルタイム追跡

Download on the App Store